Overview Statistics Trail Chart Weather Telemetry Raw packets
 

This is the latest recevied weather packets stored in our database for station/object VY2CRA-4. If no packets are shown the sender has not sent any weather packets the latest 10 day(s).

<< 9 10 11 12 13 14 15 >>
Time Temp. Humidity Pressure Rain* Wind** Luminosity Snow
1788215186 24.44° C 26% 1011.6 hPa 0 mm - - -
1788212784 25.56° C 24% 1011.7 hPa 0 mm - - -
1788211583 25.56° C 23% 1011.7 hPa 0 mm - - -
1788210387 26.11° C 22% 1011.5 hPa 0 mm - - -
1788209181 26.11° C 21% 1011.3 hPa 0 mm - - -
1788206780 26.67° C 19% 1010.9 hPa 0 mm - - -
1788203177 27.78° C 18% 1010.1 hPa 0 mm - - -
1788201976 27.78° C 17% 1010 hPa 0 mm - - -
1788199575 28.89° C 15% 1009.8 hPa 0 mm - - -
1788198373 28.89° C 16% 1009.6 hPa 0 mm - - -
1788197172 28.89° C 16% 1009.4 hPa 0 mm - - -
1788194770 28.89° C 16% 1009.1 hPa 0 mm - - -
1788191168 30° C 13% 1008.8 hPa 0 mm - - -
1788189967 30.56° C 11% 1008.8 hPa 0 mm - - -
1788187565 31.11° C 11% 1008.8 hPa 0 mm - - -
1788186364 31.11° C 12% 1008.6 hPa 0 mm - - -
1788183962 30.56° C 15% 1008.5 hPa 0 mm - - -
1788182761 30° C 16% 1008.3 hPa 0 mm - - -
1788180359 29.44° C 19% 1007.9 hPa 0 mm - - -
1788179158 29.44° C 19% 1007.8 hPa 0 mm - - -
1788176756 29.44° C 22% 1007.6 hPa 0 mm - - -
1788175555 26.11° C 33% 1007.6 hPa 0 mm - - -
1788174354 22.78° C 42% 1007.5 hPa 0 mm - - -
1788173153 20.56° C 51% 1007.4 hPa 0 mm - - -
1788170752 18.33° C 50% 1007 hPa 0 mm - - -

* Rain since midnight (hover to see other rain measurements)
** Current wind speed in m/s (hover to see current wind gust speed)